Regional Weather Roundup
Issued by NWS

Home | Current Version | Previous Version | Text Only | Print | Product List | Glossary Off
Versions: 1 2 3 4 5 6 7 8 9 10 11 12 13 14 15 16 17 18 19 20 21 22 23 24 25 26 27 28 29 30 31 32 33 34 35 36 37 38 39 40 41 42 43 44 45 46 47 48 49 50

000
ASUS43 KDMX 170601
RWRIA

WEATHER ROUNDUP FOR IOWA
NATIONAL WEATHER SERVICE DES MOINES IA
1200 AM CST TUE JAN 17 2017

NOTE: "FAIR" INDICATES FEW OR NO CLOUDS BELOW 12,000 FEET WITH NO
SIGNIFICANT WEATHER AND/OR OBSTRUCTIONS TO VISIBILITY.

* - THESE STATIONS ARE NOT NWS STATIONS...THUS NOT UNDER NWS
QUALITY CONTROL.  THEY ALSO DO NOT REPORT WEATHER SUCH
AS PRECIPITATION OR FOG.

IAZ001>003-012>014-020>022-031>034-043>046-170700-
   NORTHWEST IOWA

CITY           SKY/WX    TMP DP  RH WIND       PRES   REMARKS
CARROLL *      CLOUDY    34  34 100 NW12      29.91S WCI  25
CHEROKEE *     CLOUDY    32  32 100 NW5       29.96R FOG     WCI  27
DENISON *      MIX PCPN  32  32 100 NW10      29.91S WCI  24
LE MARS *      CLOUDY    30  30 100 NW12      29.99R FOG     WCI  21
ORANGE CITY *  CLOUDY    30  30 100 N7        29.96S FOG     WCI  23
SHELDON *      CLOUDY    30  32 100 N12G17    29.94F FOG     WCI  21
SIOUX CITY     CLOUDY    29  25  85 NW20      29.99R WCI  16
6HR MIN TEMP:  29; 6HR MAX TEMP:  34; 6HR PCP:  0.01;

SPENCER        CLOUDY    32  31  96 N15       29.94S WCI  22
6HR MIN TEMP:  32; 6HR MAX TEMP:  33; 6HR PCP:  0.07;

STORM LAKE *   CLOUDY    32  32 100 NW14      29.93R FOG     WCI  22
$$

IAZ055>058-069>071-079>083-090>094-170700-
   SOUTHWEST IOWA

CITY           SKY/WX    TMP DP  RH WIND       PRES   REMARKS
ATLANTIC *     CLOUDY    34  34 100 NW9       29.92S WCI  26
AUDUBON *      CLOUDY    34  30  86 NW3       29.92R
CLARINDA *     CLOUDY    34  34 100 NW8G14    29.95R WCI  27
COUNCIL BLFS * CLOUDY    32  32 100 NW14G21   29.94S WCI  22
CRESTON *      CLOUDY    32  32 100 NW10      29.90S FOG     WCI  24
HARLAN  *      CLOUDY    34  32  93 NW14      29.96R WCI  24
LAMONI         CLOUDY    33  33 100 NW10      29.87S WCI  25
6HR MIN TEMP:  33; 6HR MAX TEMP:  37; 6HR PCP:  0.01;

RED OAK *      CLOUDY    34  34 100 NW8       29.94S WCI  27
SHENANDOAH *   CLOUDY    34  34 100 NW6       29.96S WCI  29
$$

IAZ047>049-059>061-072>074-084-170700-
   CENTRAL IOWA

CITY           SKY/WX    TMP DP  RH WIND       PRES   REMARKS
AMES           CLOUDY    33  33 100 NW10      29.88S FOG     WCI  25
6HR MIN TEMP:  33; 6HR MAX TEMP:  35; 6HR PCP:  0.02;

ANKENY *       FOG       32  32 100 NW9       29.89R VSB 3/4 WCI  24
BOONE *        FOG       32  32 100 NW9       29.87S VSB 1/4 WCI  24
CHARITON *     CLOUDY    32  32 100 NW12      29.86R FOG     WCI  23
DES MOINES     FOG       34  33  96 NW10      29.88S VSB 1/4 WCI  26
6HR MIN TEMP:  33; 6HR MAX TEMP:  34; 6HR PCP: TRACE;

GRINNELL*      FOG       32  32  99 NW8       29.85S VSB 1/2 WCI  25
KNOXVILLE *    FOG       34  32  93 NW10      29.85R VSB 1/4 WCI  26
MARSHALLTOWN   FOG       32  32 100 N7        29.85F VSB 1/4 WCI  26
6HR MIN TEMP:  32; 6HR MAX TEMP:  33; 6HR PCP:  0.03;

NEWTON *       CLOUDY    32  32 100 NW9       29.85S FOG     WCI  24
PELLA *        FOG       33  33  99 NW7       29.86F VSB 3/4 WCI  27
PERRY *        CLOUDY    33  33 100 NW6       29.89S FOG     WCI  27
$$

IAZ004>006-015-016-023>025-035-036-170700-
   NORTH CENTRAL IOWA

CITY           SKY/WX    TMP DP  RH WIND       PRES   REMARKS
ALGONA *       CLOUDY    32  32 100 N12       29.90F FOG     WCI  23
CLARION *      CLOUDY    32  32 100 N7        29.89S FOG     WCI  26
ESTHERVILLE    FRZ RAIN  31  31 100 N13       29.93S FOG     WCI  21
6HR MIN TEMP:  30; 6HR MAX TEMP:  31; 6HR PCP:  0.06;

FORT DODGE *   CLOUDY    32  30  93 CALM      29.91R
MASON CITY     CLOUDY    32  31  96 N7        29.89F FOG     WCI  26
6HR MIN TEMP:  32; 6HR MAX TEMP:  32; 6HR PCP:  0.02;

FOREST CITY *  MIX PCPN  32  32 100 N7        29.89S WCI  26
WEBSTER CITY * FOG       32  32 100 N9        29.87S VSB 3/4 WCI  24
IOWA FALLS *   FOG       33  33  97 CALM      29.87F VSB 1/2
$$

IAZ007>011-017>019-026>030-037>042-050>054-066-170700-
   NORTHEAST IOWA

CITY           SKY/WX    TMP DP  RH WIND       PRES   REMARKS
CEDAR RAPIDS   CLOUDY    33  33 100 N3        29.81F FOG
6HR MIN TEMP:  33; 6HR MAX TEMP:  34; 6HR PCP:  0.03;

CHARLES CITY * CLOUDY    32  32 100 MISG      29.87F FOG
CLINTON *      CLOUDY    35  34  96 N7        29.82F FOG     WCI  29
DECORAH *      FOG       32  32 100 NE5       29.86S VSB 1   WCI  27
DUBUQUE        MIX PCPN  33  33 100 N9        29.82F VSB 1/4 WCI  25
6HR MIN TEMP:  33; 6HR MAX TEMP:  34; 6HR PCP:  0.10;

MONTICELLO *   CLOUDY    34  34 100 N3        29.82F FOG
OELWEIN *      CLOUDY    34  32  93 NE6       29.85S FOG     WCI  29
WATERLOO       FOG       33  32  96 N5        29.85F VSB 3/4 WCI  29
6HR MIN TEMP:  33; 6HR MAX TEMP:  33;

$$

IAZ064-065-067-068-078-170700-
   EAST CENTRAL IOWA

CITY           SKY/WX    TMP DP  RH WIND       PRES   REMARKS
DAVENPORT      FOG       34  34 100 N6        29.81F VSB 1/4 WCI  29
6HR MIN TEMP:  34; 6HR MAX TEMP:  36; 6HR PCP: TRACE;

IOWA CITY      CLOUDY    36  34  92 N7        29.83F WCI  30
6HR MIN TEMP:  36; 6HR MAX TEMP:  37; 6HR PCP:  0.07;

MUSCATINE *    LGT RAIN  36  36 100 NW5       29.82F WCI  32
QUAD CITIES    CLOUDY    37  35  92 CALM      29.80F FOG
6HR MIN TEMP:  36; 6HR MAX TEMP:  37; 6HR PCP:  0.05;

$$

IAZ062-063-075>077-085>089-095>099-170700-
   SOUTHEAST IOWA

CITY           SKY/WX    TMP DP  RH WIND       PRES   REMARKS
BURLINGTON     CLOUDY    38  38 100 CALM      29.79F FOG
6HR MIN TEMP:  38; 6HR MAX TEMP:  40; 6HR PCP:  0.26;

FAIRFIELD *    FOG       36  36 100 NW8       29.82F VSB 1/4 WCI  29
FORT MADISON * FOG       39  39 100 SW8       29.82S VSB 3/4 WCI  34
KEOKUK *       CLOUDY    41  41 100 SW10      29.82R FOG
OSKALOOSA *    FOG       33  33  99 CALM      29.84S VSB 1
CENTERVILLE *  CLOUDY    34  34 100 CALM      29.86S FOG
OTTUMWA        FOG       35  35 100 NW5       29.83F VSB 1/2 WCI  31
6HR MIN TEMP:  35; 6HR MAX TEMP:  37; 6HR PCP:  0.09;

WASHINGTON *   CLOUDY    36  36 100 NW6       29.83F FOG     WCI  31
$$

ABBREVIATIONS USED IN REMARKS
   TC - TEMPERATURES IN CELSIUS
  WCI - WIND CHILL INDEX
   HX - HEAT INDEX
  VSB - VISIBILITY
$$





USA.gov is the U.S. government's official web portal to all federal, state and local government web resources and services.